Stündliche Wetter Abbey

Heute, 27 Februar, Samstag

Zeit Temperatur Niederschläge Wind Luftdruck Luftfeuchtigkeit
00:00 -21°C° 0 mm 2 m/S 699 mmHg 97%
01:00 -21°C° 0 mm 2 m/S 699 mmHg 97%
02:00 -24°C° 0 mm 3 m/S 700 mmHg 97%
03:00 -23°C° 0 mm 2 m/S 700 mmHg 98%
04:00 -24°C° 0 mm 2 m/S 700 mmHg 98%
05:00 -25°C° 0 mm 2 m/S 700 mmHg 98%
06:00 -22°C° 0 mm 1 m/S 701 mmHg 98%
07:00 -22°C° 0 mm 1 m/S 701 mmHg 98%
08:00 -22°C° 0 mm 1 m/S 702 mmHg 97%
09:00 -21°C° 0 mm 1 m/S 702 mmHg 95%
10:00 -21°C° 0 mm 2 m/S 703 mmHg 92%
11:00 -20°C° 0 mm 2 m/S 703 mmHg 90%
12:00 -19°C° 0 mm 3 m/S 703 mmHg 89%
13:00 -19°C° 0 mm 4 m/S 703 mmHg 89%
14:00 -19°C° 0 mm 5 m/S 703 mmHg 88%
15:00 -18°C° 0 mm 4 m/S 703 mmHg 89%
16:00 -18°C° 0 mm 4 m/S 702 mmHg 89%
17:00 -18°C° 0 mm 4 m/S 702 mmHg 90%
18:00 -19°C° 0 mm 4 m/S 702 mmHg 89%
19:00 -18°C° 0 mm 3 m/S 702 mmHg 88%
20:00 -19°C° 0 mm 3 m/S 702 mmHg 87%
21:00 -19°C° 0 mm 3 m/S 702 mmHg 86%
22:00 -19°C° 0 mm 3 m/S 702 mmHg 85%
23:00 -18°C° 0 mm 2 m/S 701 mmHg 84%

Morgen, 28 Februar, Sonntag

Zeit Temperatur Niederschläge Wind Luftdruck Luftfeuchtigkeit
00:00 -17°C° 0 mm 2 m/S 701 mmHg 81%
01:00 -18°C° 0 mm 3 m/S 701 mmHg 79%
02:00 -18°C° 0 mm 3 m/S 700 mmHg 77%
03:00 -17°C° 0 mm 3 m/S 700 mmHg 78%
04:00 -16°C° 0 mm 3 m/S 699 mmHg 79%
05:00 -16°C° 0 mm 3 m/S 699 mmHg 79%
06:00 -15°C° 0 mm 3 m/S 698 mmHg 80%
07:00 -14°C° 0 mm 3 m/S 698 mmHg 81%
08:00 -14°C° 0 mm 4 m/S 698 mmHg 82%
09:00 -12°C° 0 mm 4 m/S 698 mmHg 83%
10:00 -11°C° 0 mm 4 m/S 698 mmHg 84%
11:00 -10°C° 0 mm 4 m/S 699 mmHg 85%
12:00 -11°C° 0 mm 4 m/S 699 mmHg 87%
13:00 -12°C° 0 mm 4 m/S 700 mmHg 88%
14:00 -12°C° 0 mm 4 m/S 701 mmHg 90%
15:00 -15°C° 0 mm 4 m/S 701 mmHg 91%
16:00 -15°C° 0 mm 3 m/S 702 mmHg 93%
17:00 -17°C° 0 mm 3 m/S 702 mmHg 94%
18:00 -18°C° 0 mm 3 m/S 703 mmHg 94%
19:00 -18°C° 0 mm 3 m/S 703 mmHg 94%
20:00 -20°C° 0 mm 4 m/S 704 mmHg 94%
21:00 -20°C° 0 mm 4 m/S 704 mmHg 93%
22:00 -19°C° 0 mm 4 m/S 704 mmHg 92%
23:00 -19°C° 0 mm 5 m/S 704 mmHg 91%

übermorgen, 1 März, Montag

Zeit Temperatur Niederschläge Wind Luftdruck Luftfeuchtigkeit
00:00 -19°C° 0 mm 5 m/S 704 mmHg 90%
01:00 -18°C° 0 mm 5 m/S 703 mmHg 90%
02:00 -18°C° 0 mm 5 m/S 703 mmHg 90%
03:00 -15°C° 0 mm 4 m/S 702 mmHg 88%
04:00 -14°C° 0 mm 4 m/S 702 mmHg 87%
05:00 -12°C° 0 mm 4 m/S 701 mmHg 85%
06:00 -11°C° 0 mm 4 m/S 701 mmHg 83%
07:00 -10°C° 0 mm 4 m/S 700 mmHg 82%
08:00 -10°C° 0 mm 5 m/S 699 mmHg 80%
09:00 -6°C° 0 mm 5 m/S 699 mmHg 80%
10:00 -4°C° 0 mm 6 m/S 698 mmHg 80%
11:00 -2°C° 0 mm 6 m/S 698 mmHg 79%
12:00 -1°C° 0 mm 7 m/S 697 mmHg 81%
13:00 -1°C° 0 mm 7 m/S 696 mmHg 83%
14:00 0°C° 0 mm 7 m/S 696 mmHg 84%
15:00 0°C° 0 mm 7 m/S 695 mmHg 81%
16:00 0°C° 0 mm 7 m/S 695 mmHg 78%
17:00 0°C° 0 mm 7 m/S 694 mmHg 74%
18:00 0°C° 0 mm 7 m/S 694 mmHg 74%
19:00 -1°C° 0 mm 7 m/S 694 mmHg 74%
20:00 -1°C° 0 mm 7 m/S 693 mmHg 73%
21:00 -1°C° 0 mm 8 m/S 693 mmHg 73%
22:00 -1°C° 0 mm 8 m/S 693 mmHg 73%
23:00 0°C° 0 mm 8 m/S 693 mmHg 73%

2 März, Dienstag

Zeit Temperatur Niederschläge Wind Luftdruck Luftfeuchtigkeit
00:00 -1°C° 0 mm 8 m/S 693 mmHg 73%
01:00 -1°C° 0 mm 8 m/S 693 mmHg 73%
02:00 -1°C° 0 mm 8 m/S 693 mmHg 72%
03:00 -2°C° 0 mm 8 m/S 693 mmHg 73%
04:00 -3°C° 0 mm 7 m/S 693 mmHg 74%
05:00 -3°C° 0 mm 7 m/S 693 mmHg 75%
06:00 -4°C° 0 mm 6 m/S 694 mmHg 77%
07:00 -5°C° 0 mm 5 m/S 694 mmHg 79%
08:00 -5°C° 0 mm 4 m/S 694 mmHg 81%
09:00 -5°C° 0 mm 3 m/S 694 mmHg 82%
10:00 -3°C° 0 mm 2 m/S 694 mmHg 83%
11:00 0°C° 0 mm 1 m/S 695 mmHg 83%
12:00 -1°C° 0 mm 2 m/S 694 mmHg 87%
13:00 -1°C° 0 mm 2 m/S 694 mmHg 90%
14:00 -1°C° 0 mm 2 m/S 693 mmHg 93%
15:00 -1°C° 0 mm 2 m/S 693 mmHg 89%
16:00 -1°C° 0 mm 3 m/S 693 mmHg 85%
17:00 -1°C° 0 mm 3 m/S 692 mmHg 82%
18:00 -1°C° 0 mm 3 m/S 692 mmHg 80%
19:00 -2°C° 0 mm 4 m/S 692 mmHg 78%
20:00 -3°C° 0 mm 4 m/S 692 mmHg 77%
21:00 -3°C° 0 mm 4 m/S 692 mmHg 77%
22:00 -3°C° 0 mm 4 m/S 692 mmHg 77%
23:00 -4°C° 0 mm 4 m/S 692 mmHg 77%

3 März, Mittwoch

Zeit Temperatur Niederschläge Wind Luftdruck Luftfeuchtigkeit
00:00 -5°C° 0 mm 4 m/S 692 mmHg 79%
01:00 -7°C° 0 mm 4 m/S 692 mmHg 81%
02:00 -7°C° 0 mm 4 m/S 692 mmHg 83%
03:00 -7°C° 0 mm 3 m/S 692 mmHg 83%
04:00 -8°C° 0 mm 3 m/S 692 mmHg 84%
05:00 -7°C° 0 mm 2 m/S 692 mmHg 85%
06:00 -7°C° 0 mm 2 m/S 692 mmHg 85%
07:00 -7°C° 0 mm 2 m/S 693 mmHg 84%
08:00 -7°C° 0 mm 2 m/S 693 mmHg 84%
09:00 -4°C° 0 mm 1 m/S 693 mmHg 83%
10:00 -3°C° 0 mm 1 m/S 694 mmHg 83%
11:00 -1°C° 0 mm 1 m/S 694 mmHg 82%
12:00 -1°C° 0 mm 1 m/S 695 mmHg 84%
13:00 -1°C° 0 mm 0 m/S 695 mmHg 85%
14:00 -1°C° 0 mm 0 m/S 695 mmHg 87%
15:00 -1°C° 0 mm 0 m/S 696 mmHg 86%
16:00 -2°C° 0 mm 0 m/S 696 mmHg 85%
17:00 -3°C° 0 mm 0 m/S 696 mmHg 84%
18:00 -4°C° 0 mm 0 m/S 697 mmHg 83%
19:00 -4°C° 0 mm 0 m/S 697 mmHg 82%
20:00 -4°C° 0 mm 1 m/S 698 mmHg 81%
21:00 -4°C° 0 mm 1 m/S 698 mmHg 80%
22:00 -4°C° 0 mm 1 m/S 699 mmHg 79%
23:00 -4°C° 0 mm 1 m/S 699 mmHg 77%

4 März, Donnerstag

Zeit Temperatur Niederschläge Wind Luftdruck Luftfeuchtigkeit
00:00 -4°C° 0 mm 1 m/S 700 mmHg 77%
01:00 -4°C° 0 mm 1 m/S 700 mmHg 77%
02:00 -4°C° 0 mm 1 m/S 701 mmHg 77%
03:00 -6°C° 0 mm 2 m/S 701 mmHg 77%
04:00 -6°C° 0 mm 2 m/S 701 mmHg 77%
05:00 -6°C° 0 mm 2 m/S 702 mmHg 77%
06:00 -5°C° 0 mm 2 m/S 702 mmHg 77%
07:00 -5°C° 0 mm 2 m/S 703 mmHg 76%
08:00 -5°C° 0 mm 2 m/S 703 mmHg 76%
09:00 -4°C° 0 mm 2 m/S 704 mmHg 78%
10:00 -2°C° 0 mm 2 m/S 704 mmHg 80%
11:00 -1°C° 0 mm 2 m/S 705 mmHg 82%
12:00 +1°C° 0 mm 2 m/S 705 mmHg 85%
13:00 +1°C° 0 mm 2 m/S 705 mmHg 88%
14:00 +2°C° 0 mm 2 m/S 705 mmHg 91%
15:00 +1°C° 0 mm 2 m/S 705 mmHg 86%
16:00 +1°C° 0 mm 2 m/S 705 mmHg 82%
17:00 +1°C° 0 mm 2 m/S 705 mmHg 78%
18:00 0°C° 0 mm 3 m/S 704 mmHg 76%
19:00 -1°C° 0 mm 3 m/S 704 mmHg 75%
20:00 -1°C° 0 mm 3 m/S 704 mmHg 74%
21:00 -2°C° 0 mm 4 m/S 704 mmHg 73%
22:00 -2°C° 0 mm 4 m/S 704 mmHg 72%
23:00 -2°C° 0 mm 4 m/S 704 mmHg 71%
Mehr zeigen

Wir brauchen deine Erlaubnis

Meteoprog und unser Service Anbieter werden persönliche Daten aufbewahren, so wie Cookies, Geräte Bezeichnung oder ähnliche Technologien von deinem Gerät und Prozess, so wie Persönliche Daten Inhalte und Werbungen, genauso wie social Media und den Verkehr zu analysieren.

  • Aufbewahrung und/oder Zugang zu deiner Geräte Informationen.

    Cookies, Geräte Bezeichnung oder andere Informationen, können aufbewahrt oder Zugang zu deinem Gerät erhalten, für den Grund, der oben angegeben wird.

  • Personalisierte Werbung und Inhalte, Messungen, Einblick in das Publikum und Produkt Entwicklung.

    Werbungen und Inhalte können personalisiert werden, basierend auf ein Profil. Mehr Daten können besser personalisierte Werbungen und Inhalte hinzufügen. Werbung und Inhalte können gezeigt und gemessen werden. Einblicke über das Publikum, welche die Werbung gesehen haben und den Inhalt, können abgeleitet werden. So wie Daten können genutzt werden, um es zu verbessern oder die Benutzer Erfahrung zu verbessern das System und die Software.

Wenn du “Ich stimme zu” klickst, erlaubst du uns, die Cookies zu benutzen die Geräte Bezeichnung, den Web oder ähnliche Technologien zu benutzen. Deine Settings, können in deinem Gerät bei deinem Browser geändert werden.

Für den bestimmten Zweck, berechtigten Interessen beruhen darauf, mehr als auf den Inhalt. Du kannst mehr darüber in unseren Privaten und Cookie Politik lesen.